2023/01/29 00:00:00,164.2,-6.6
2023/01/29 00:10:00,164.9,-6.5
2023/01/29 00:20:00,165.1,-6.4
2023/01/29 00:30:00,164.9,-6.5
2023/01/29 00:40:00,164.8,-6.3
2023/01/29 00:50:00,164.6,-6.5
2023/01/29 01:00:00,164.4,-6.6
2023/01/29 01:10:00,164.4,-6.4
2023/01/29 01:20:00,164.4,-6.5
2023/01/29 01:30:00,164.7,-6.5
2023/01/29 01:40:00,164.9,-6.6
2023/01/29 01:50:00,164.7,-6.5
2023/01/29 02:00:00,164.8,-6.3
2023/01/29 02:10:00,164.7,-6.5
2023/01/29 02:20:00,164.5,-6.3
2023/01/29 02:30:00,164.4,-6.4
2023/01/29 02:40:00,164.2,-6.5
2023/01/29 02:50:00,164.0,-6.6
2023/01/29 03:00:00,163.9,-6.3
2023/01/29 03:10:00,163.9,-6.3
2023/01/29 03:20:00,163.7,-6.1
2023/01/29 03:30:00,163.6,-6.1
2023/01/29 03:40:00,163.6,-6.3
2023/01/29 03:50:00,163.5,-6.0
2023/01/29 04:00:00,163.5,-6.0
2023/01/29 04:10:00,163.3,-6.2
2023/01/29 04:20:00,163.2,-5.9
2023/01/29 04:30:00,163.1,-6.1
2023/01/29 04:40:00,163.5,-6.0
2023/01/29 04:50:00,163.6,-6.0
2023/01/29 05:00:00,163.5,-6.0
2023/01/29 05:10:00,163.3,-6.3
2023/01/29 05:20:00,163.2,-6.1
2023/01/29 05:30:00,163.1,-7.1
2023/01/29 05:40:00,162.8,-6.1
2023/01/29 05:50:00,162.6,-6.1
2023/01/29 06:00:00,162.3,-6.0
2023/01/29 06:10:00,162.3,-6.1
2023/01/29 06:20:00,162.2,-6.1
2023/01/29 06:30:00,162.0,-6.1
2023/01/29 06:40:00,161.8,-6.0
2023/01/29 06:50:00,161.6,-6.2
2023/01/29 07:00:00,161.4,-6.0
2023/01/29 07:10:00,161.2,-5.8
2023/01/29 07:20:00,161.2,-5.9
2023/01/29 07:30:00,161.0,-5.8
2023/01/29 07:40:00,161.0,-5.7
2023/01/29 07:50:00,161.1,-5.7
2023/01/29 08:00:00,160.9,-5.4
2023/01/29 08:10:00,160.7,-5.4
2023/01/29 08:20:00,160.6,-5.2
2023/01/29 08:30:00,160.6,-4.8
2023/01/29 08:40:00,160.5,-4.6
2023/01/29 08:50:00,160.4,-4.4
2023/01/29 09:00:00,160.3,-4.0
2023/01/29 09:10:00,160.2,-4.1
2023/01/29 09:20:00,160.0,-3.1
2023/01/29 09:30:00,159.7,-2.7
2023/01/29 09:40:00,159.4,-2.7
2023/01/29 09:50:00,159.0,-2.4
2023/01/29 10:00:00,158.8,-2.8
2023/01/29 10:10:00,158.6,-2.8
2023/01/29 10:20:00,158.4,-1.8
2023/01/29 10:30:00,158.4,-1.2
2023/01/29 10:40:00,158.2,-0.8
2023/01/29 10:50:00,158.2,-0.7
2023/01/29 11:00:00,158.0,-1.8
2023/01/29 11:10:00,157.8,-1.3
2023/01/29 11:20:00,157.6,-2.0
2023/01/29 11:30:00,157.5,-1.9
2023/01/29 11:40:00,157.4,-2.1
2023/01/29 11:50:00,157.3,-1.4
2023/01/29 12:00:00,157.1,-0.9
2023/01/29 12:10:00,156.8,-0.4
2023/01/29 12:20:00,156.7,-1.1
2023/01/29 12:30:00,156.6,-1.7
2023/01/29 12:40:00,156.3,-1.1
2023/01/29 12:50:00,156.5,-1.1
2023/01/29 13:00:00,156.7, 1.8
2023/01/29 13:10:00,156.2, 1.9
2023/01/29 13:20:00,155.8, 6.2
2023/01/29 13:30:00,155.2, 3.5
2023/01/29 13:40:00,155.1, 2.1
2023/01/29 13:50:00,155.1, 1.7
2023/01/29 14:00:00,155.2, 0.7
2023/01/29 14:10:00,155.3, 0.6
2023/01/29 14:20:00,155.3, 0.0
2023/01/29 14:30:00,155.3,-0.8
2023/01/29 14:40:00,155.1,-1.0
2023/01/29 14:50:00,154.9,-1.3
2023/01/29 15:00:00,154.6,-0.7
2023/01/29 15:10:00,154.5,-0.9
2023/01/29 15:20:00,154.4,-1.2
2023/01/29 15:30:00,154.4,-1.5
2023/01/29 15:40:00,154.3,-1.8
2023/01/29 15:50:00,154.0,-1.6
2023/01/29 16:00:00,154.0,-1.5
2023/01/29 16:10:00,154.0,-1.4
2023/01/29 16:20:00,153.9,-1.3
2023/01/29 16:30:00,153.7, 0.6
2023/01/29 16:40:00,153.4, 2.2
2023/01/29 16:50:00,153.2,-1.2
2023/01/29 17:00:00,153.1,-1.4
2023/01/29 17:10:00,153.2,-2.3
2023/01/29 17:20:00,153.2,-2.8
2023/01/29 17:30:00,153.1,-3.4
2023/01/29 17:40:00,152.8,-3.4
2023/01/29 17:50:00,152.4,-3.4
2023/01/29 18:00:00,152.3,-4.0
2023/01/29 18:10:00,152.1,-4.4
2023/01/29 18:20:00,152.0,-4.9
2023/01/29 18:30:00,152.0,-5.0
2023/01/29 18:40:00,151.9,-5.4
2023/01/29 18:50:00,151.8,-5.6
2023/01/29 19:00:00,151.8,-5.7
2023/01/29 19:10:00,151.7,-5.9
2023/01/29 19:20:00,151.5,-5.7
2023/01/29 19:30:00,151.4,-5.4
2023/01/29 19:40:00,151.3,-5.0
2023/01/29 19:50:00,151.2,-4.8
2023/01/29 20:00:00,150.9,-4.9
2023/01/29 20:10:00,150.7,-4.7
2023/01/29 20:20:00,150.6,-4.5
2023/01/29 20:30:00,150.5,-4.5
2023/01/29 20:40:00,150.4,-4.5
2023/01/29 20:50:00,150.2,-4.6
2023/01/29 21:00:00,150.0,-4.6
2023/01/29 21:10:00,149.9,-4.5
2023/01/29 21:20:00,149.7,-4.5
2023/01/29 21:30:00,149.6,-4.4
2023/01/29 21:40:00,149.5,-4.0
2023/01/29 21:50:00,149.4,-4.8
2023/01/29 22:00:00,149.3,-4.3
2023/01/29 22:10:00,149.2,-4.6
2023/01/29 22:20:00,149.2,-4.6
2023/01/29 22:30:00,149.2,-4.5
2023/01/29 22:40:00,149.2,-4.7
2023/01/29 22:50:00,149.1,-4.6
2023/01/29 23:00:00,149.0,-4.6
2023/01/29 23:10:00,148.9,-4.7
2023/01/29 23:20:00,148.8,-4.7
2023/01/29 23:30:00,148.7,-4.6
2023/01/29 23:40:00,148.6,-4.5
2023/01/29 23:50:00,148.5,-4.6
